N4DWK Weather Reports


Display with metric or nautical units.
time (UTC)temp
F
wind
direction
speed
MPH
gust
MPH
rain 1hr
in
rain 24hr
in
rain mn
in
humidity
%
barometer
mb
20260505032002 67 209 2.0 3.0 0.00 0.00 0.00 55 1012.6
20260505031502 67 203 1.0 3.0 0.00 0.00 0.00 55 1012.6
20260505031003 67 202 1.0 3.0 0.00 0.00 0.00 55 1012.6
20260505030503 67 202 2.0 3.0 0.00 0.00 0.00 54 1012.6
20260505030002 68 202 1.0 3.0 0.00 0.00 0.00 54 1012.6
20260505025502 68 202 2.0 3.0 0.00 0.00 0.00 53 1012.7
20260505025003 68 202 2.0 3.0 0.00 0.00 0.00 53 1012.6
20260505024502 68 202 1.0 3.0 0.00 0.00 0.00 53 1012.7
20260505024003 68 202 1.0 3.0 0.00 0.00 0.00 53 1012.7
20260505023502 68 217 2.0 3.0 0.00 0.00 0.00 53 1012.7
20260505023003 69 217 2.0 3.0 0.00 0.00 0.00 52 1012.7
20260505022503 69 201 2.0 3.0 0.00 0.00 0.00 52 1012.6
20260505022003 69 215 2.0 3.0 0.00 0.00 0.00 52 1012.5
20260505021502 69 215 1.0 3.0 0.00 0.00 0.00 52 1012.5
20260505021002 69 215 2.0 3.0 0.00 0.00 0.00 52 1012.5
20260505020502 69 203 2.0 3.0 0.00 0.00 0.00 52 1012.5
20260505020002 69 215 2.0 3.0 0.00 0.00 0.00 51 1012.5
20260505015503 69 215 2.0 3.0 0.00 0.00 0.00 51 1012.5
20260505015002 70 215 2.0 3.0 0.00 0.00 0.00 51 1012.5
20260505014503 70 217 2.0 3.0 0.00 0.00 0.00 51 1012.4
20260505014002 70 217 2.0 3.0 0.00 0.00 0.00 51 1012.4
20260505013502 70 196 2.0 3.0 0.00 0.00 0.00 51 1012.3
20260505013003 70 209 2.0 3.0 0.00 0.00 0.00 51 1012.2
20260505012502 70 209 1.0 3.0 0.00 0.00 0.00 50 1012.2
20260505012003 70 209 2.0 3.0 0.00 0.00 0.00 50 1012.1
20260505011502 70 209 2.0 3.0 0.00 0.00 0.00 50 1012.1
20260505011002 70 213 2.0 3.0 0.00 0.00 0.00 50 1012.0
20260505010504 70 213 2.0 3.0 0.00 0.00 0.00 50 1011.9
20260505010002 71 213 1.0 3.0 0.00 0.00 0.00 49 1011.9
20260505005502 71 213 0.0 1.0 0.00 0.00 0.00 49 1011.8
20260505005004 71 213 0.0 2.0 0.00 0.00 0.00 49 1011.8
20260505004503 71 213 1.0 2.0 0.00 0.00 0.00 48 1011.7
20260505004003 71 213 1.0 2.0 0.00 0.00 0.00 48 1011.8
20260505003502 72 213 0.0 3.0 0.00 0.00 0.00 48 1011.7
20260505003003 72 213 1.0 3.0 0.00 0.00 0.00 48 1011.8
20260505002502 72 213 2.0 3.0 0.00 0.00 0.00 47 1011.8
20260505002002 72 213 1.0 3.0 0.00 0.00 0.00 47 1011.8
20260505001503 72 213 1.0 3.0 0.00 0.00 0.00 47 1011.7
20260505001003 72 213 1.0 3.0 0.00 0.00 0.00 47 1011.8
20260505000502 73 214 1.0 3.0 0.00 0.00 0.00 46 1012.0
20260505000003 73 214 2.0 3.0 0.00 0.00 0.00 45 1012.1
20260504235503 73 215 2.0 5.0 0.00 0.00 0.00 45 1012.0
20260504235003 73 215 2.0 5.0 0.00 0.00 0.00 44 1012.0
20260504234502 73 217 2.0 5.0 0.00 0.00 0.00 44 1011.9
20260504234002 73 222 1.0 3.0 0.00 0.00 0.00 44 1011.8
20260504233503 74 222 2.0 3.0 0.00 0.00 0.00 43 1011.8
20260504233002 74 222 2.0 3.0 0.00 0.00 0.00 43 1011.8
20260504232502 74 221 2.0 5.0 0.00 0.00 0.00 42 1011.8
20260504232003 74 213 2.0 5.0 0.00 0.00 0.00 42 1011.7
20260504231502 75 213 2.0 5.0 0.00 0.00 0.00 42 1011.6
20260504231004 75 211 1.0 6.0 0.00 0.00 0.00 41 1011.5
20260504230502 75 187 3.0 6.0 0.00 0.00 0.00 40 1011.5
20260504230002 75 233 2.0 7.0 0.00 0.00 0.00 40 1011.5
20260504225506 76 219 4.0 7.0 0.00 0.00 0.00 39 1011.6
20260504225002 76 223 3.0 6.0 0.00 0.00 0.00 39 1011.6
20260504224507 76 202 3.0 9.0 0.00 0.00 0.00 39 1011.7
20260504224003 76 212 3.0 9.0 0.00 0.00 0.00 39 1011.8
20260504223504 77 330 5.0 9.0 0.00 0.00 0.00 39 1011.7
20260504222510 77 223 3.0 9.0 0.00 0.00 0.00 39 1011.7
20260504222010 77 227 5.0 9.0 0.00 0.00 0.00 38 1011.7
20260504221509 78 216 5.0 8.0 0.00 0.00 0.00 37 1011.6
20260504221010 78 219 3.0 9.0 0.00 0.00 0.00 37 1011.6
20260504220510 78 218 3.0 10.0 0.00 0.00 0.00 38 1011.6
20260504220010 78 221 3.0 10.0 0.00 0.00 0.00 38 1011.6
20260504215510 78 221 3.0 10.0 0.00 0.00 0.00 38 1011.7
20260504215010 78 218 4.0 9.0 0.00 0.00 0.00 36 1011.7
20260504214510 78 183 3.0 12.0 0.00 0.00 0.00 37 1011.7
20260504214010 78 195 2.0 12.0 0.00 0.00 0.00 37 1011.6
20260504213509 79 222 6.0 12.0 0.00 0.00 0.00 36 1011.6
20260504213010 79 224 3.0 9.0 0.00 0.00 0.00 36 1011.5
20260504212510 79 233 3.0 9.0 0.00 0.00 0.00 37 1011.5
20260504212011 79 233 3.0 8.0 0.00 0.00 0.00 37 1011.6
20260504211510 79 230 3.0 12.0 0.00 0.00 0.00 36 1011.6
20260504211009 79 223 6.0 12.0 0.00 0.00 0.00 36 1011.7
20260504210510 79 156 4.0 9.0 0.00 0.00 0.00 37 1011.7
20260504210010 79 241 3.0 10.0 0.00 0.00 0.00 35 1011.6
20260504205510 80 225 5.0 10.0 0.00 0.00 0.00 35 1011.6
20260504205009 81 218 2.0 6.0 0.00 0.00 0.00 35 1011.6
20260504204510 80 223 3.0 6.0 0.00 0.00 0.00 36 1011.6
20260504204010 80 219 3.0 10.0 0.00 0.00 0.00 36 1011.7
20260504203509 79 227 3.0 13.0 0.00 0.00 0.00 37 1011.8
20260504203009 79 226 6.0 13.0 0.00 0.00 0.00 36 1011.8
20260504202511 79 238 2.0 12.0 0.00 0.00 0.00 37 1011.8
20260504202010 78 209 6.0 12.0 0.00 0.00 0.00 36 1011.9
20260504201510 79 221 5.0 10.0 0.00 0.00 0.00 36 1012.0
20260504201010 80 214 4.0 7.0 0.00 0.00 0.00 35 1012.0
20260504200510 79 214 4.0 7.0 0.00 0.00 0.00 37 1012.1
20260504200010 78 221 2.0 7.0 0.00 0.00 0.00 37 1012.1
20260504195510 79 224 3.0 7.0 0.00 0.00 0.00 35 1012.1
20260504195009 80 215 2.0 9.0 0.00 0.00 0.00 38 1012.1
20260504194510 78 195 3.0 9.0 0.00 0.00 0.00 37 1012.2
20260504194010 79 226 3.0 9.0 0.00 0.00 0.00 37 1012.3
20260504193509 78 223 1.0 10.0 0.00 0.00 0.00 37 1012.4
20260504193010 77 289 3.0 10.0 0.00 0.00 0.00 38 1012.5
20260504192510 78 215 3.0 10.0 0.00 0.00 0.00 36 1012.5
20260504192009 78 231 2.0 6.0 0.00 0.00 0.00 37 1012.7
20260504191509 77 229 2.0 7.0 0.00 0.00 0.00 37 1012.8
20260504191010 77 229 3.0 7.0 0.00 0.00 0.00 38 1012.9
20260504190509 77 217 2.0 6.0 0.00 0.00 0.00 38 1012.9
20260504190010 76 226 2.0 8.0 0.00 0.00 0.00 38 1013.1
20260504185510 75 233 5.0 8.0 0.00 0.00 0.00 38 1013.2
20260504185009 74 228 3.0 7.0 0.00 0.00 0.00 39 1013.3
20260504184511 75 233 5.0 7.0 0.00 0.00 0.00 39 1013.4
20260504184010 76 229 3.0 9.0 0.00 0.00 0.00 38 1013.3
20260504183509 75 209 3.0 9.0 0.00 0.00 0.00 39 1013.3
20260504183010 74 219 4.0 7.0 0.00 0.00 0.00 38 1013.3
20260504182510 74 222 3.0 9.0 0.00 0.00 0.00 39 1013.4
20260504182010 74 211 4.0 9.0 0.00 0.00 0.00 37 1013.5
20260504181509 75 225 6.0 8.0 0.00 0.00 0.00 37 1013.5
20260504181010 74 224 2.0 7.0 0.00 0.00 0.00 39 1013.6
20260504180509 74 224 4.0 7.0 0.00 0.00 0.00 39 1013.7
20260504180009 73 220 2.0 9.0 0.00 0.00 0.00 38 1013.7
20260504175509 73 225 3.0 9.0 0.00 0.00 0.00 37 1013.8
20260504175009 73 207 4.0 9.0 0.00 0.00 0.00 38 1013.7
20260504174509 74 247 5.0 9.0 0.00 0.00 0.00 38 1013.8
20260504174010 74 236 4.0 7.0 0.00 0.00 0.00 39 1013.8
20260504173509 73 216 3.0 5.0 0.00 0.00 0.00 39 1013.8
20260504173009 73 235 3.0 7.0 0.00 0.00 0.00 39 1013.9
20260504172509 72 217 2.0 7.0 0.00 0.00 0.00 40 1014.0
20260504172010 72 223 3.0 8.0 0.00 0.00 0.00 39 1014.1
20260504171510 73 229 4.0 10.0 0.00 0.00 0.00 38 1014.2
20260504171009 73 316 2.0 10.0 0.00 0.00 0.00 38 1014.2
20260504170509 74 209 1.0 10.0 0.00 0.00 0.00 39 1014.3
20260504151009 67 223 2.0 7.0 0.00 0.00 0.00 45 1015.4
20260504150509 66 229 3.0 7.0 0.00 0.00 0.00 46 1015.4
20260504141010 62 220 2.0 5.0 0.00 0.00 0.00 54 1015.8
20260504140509 62 318 2.0 5.0 0.00 0.00 0.00 54 1015.8
20260504130509 58 210 3.0 6.0 0.00 0.00 0.00 58 1016.2
20260504110509 52 213 0.0 2.0 0.00 0.00 0.00 63 1016.6
20260504100509 54 205 1.0 3.0 0.00 0.00 0.00 59 1016.3
20260504081508 55 223 2.0 3.0 0.00 0.00 0.00 53 1016.6
20260504081009 55 224 2.0 5.0 0.00 0.00 0.00 53 1016.6
20260504080508 55 219 2.0 5.0 0.00 0.00 0.00 53 1016.5
20260504050508 52 205 1.0 3.0 0.00 0.00 0.00 58 1016.5
20260504050008 52 205 0.0 0.0 0.00 0.00 0.00 58 1016.6
20260504045508 52 205 0.0 2.0 0.00 0.00 0.00 58 1016.6
20260504045009 52 205 0.0 3.0 0.00 0.00 0.00 58 1016.5
20260504044508 51 205 0.0 3.0 0.00 0.00 0.00 59 1016.5
20260504044009 51 205 1.0 3.0 0.00 0.00 0.00 59 1016.5
20260504043508 51 205 0.0 2.0 0.00 0.00 0.00 60 1016.5
20260504043009 51 205 0.0 2.0 0.00 0.00 0.00 60 1016.5
20260504042508 51 205 0.0 0.0 0.00 0.00 0.00 61 1016.4
20260504042008 51 205 0.0 0.0 0.00 0.00 0.00 61 1016.5
20260504041508 51 205 0.0 0.0 0.00 0.00 0.00 61 1016.5
20260504041008 51 205 0.0 2.0 0.00 0.00 0.00 61 1016.5
20260504040508 51 205 0.0 2.0 0.00 0.00 0.00 61 1016.4
20260504040009 50 205 0.0 2.0 0.00 0.00 0.00 62 1016.4
20260504035508 50 205 0.0 3.0 0.00 0.00 0.00 62 1016.4
20260504035009 50 205 1.0 3.0 0.00 0.00 0.00 62 1016.4
20260504034508 50 205 0.0 0.0 0.00 0.00 0.00 63 1016.4
20260504034008 50 205 0.0 0.0 0.00 0.00 0.00 63 1016.5
20260504033508 50 205 0.0 0.0 0.00 0.00 0.00 63 1016.5
20260504033008 50 205 0.0 0.0 0.00 0.00 0.00 62 1016.5
20260504032508 50 205 0.0 0.0 0.00 0.00 0.00 62 1016.5